Voltar ao catálogo

STARLINK-36976

AtivoComunicaçõesVLEO
NORAD 68066·PAYLOAD·🇺🇸 United States

Lançado Mar 2, 2026 de Vandenberg Space Force Base

Loading…

Próximas Passagens (próximas 24 horas)

TLE

AtualizadoSource: CelesTrak SupGP

Época: Sep 14, 2026, 23:02 UTC

1 68066C 26041AC  26257.96020833  .00033182  00000+0  98018-3 0  2574
2 68066  53.1582 245.3824 0001344  90.5740 203.1474 15.34379874    10

Acompanhe STARLINK-36976 em tempo real com AllMySat

Download on the App Store